Time,TemperatureF,DewpointF,PressureIn,WindDirection,WindDirectionDegrees,WindSpeedMPH,WindSpeedGustMPH,Humidity,HourlyPrecipIn,Conditions,Clouds,dailyrainin,SoftwareType,DateUTC
2013-02-06 00:00:00,30.2,28.2,29.96,NE,56,0.0,0.0,92,0.00,,CLR,0.00,VWS V14.00,2013-02-06 05:00:00,
2013-02-06 00:01:00,30.2,28.2,29.96,NE,56,0.0,0.0,92,0.00,,,0.00,VWS V14.00,2013-02-06 05:01:00,
2013-02-06 00:02:00,30.2,28.2,29.96,ENE,57,0.0,0.0,92,0.00,,,0.00,VWS V14.00,2013-02-06 05:02:00,
2013-02-06 00:07:00,30.3,28.3,29.96,NNW,338,0.0,0.0,92,0.00,,,0.00,VWS V14.00,2013-02-06 05:07:00,
2013-02-06 00:12:00,30.2,28.2,29.96,NNW,339,0.0,0.0,92,0.00,,,0.00,VWS V14.00,2013-02-06 05:12:00,
2013-02-06 00:18:00,30.2,28.2,29.96,NNW,339,0.0,0.0,92,0.00,,,0.00,VWS V14.00,2013-02-06 05:18:00,
2013-02-06 00:23:00,30.2,28.2,29.96,NNW,339,0.0,0.0,92,0.00,,,0.00,VWS V14.00,2013-02-06 05:23:00,
2013-02-06 00:28:00,30.2,28.2,29.96,NNW,339,0.0,0.0,92,0.00,,,0.00,VWS V14.00,2013-02-06 05:28:00,
2013-02-06 00:30:00,30.2,28.2,29.96,NNW,334,0.0,0.0,92,0.00,,CLR,0.00,VWS V14.00,2013-02-06 05:30:00,
2013-02-06 00:33:00,30.1,28.1,29.96,NNW,335,0.0,0.0,92,0.00,,,0.00,VWS V14.00,2013-02-06 05:33:00,
2013-02-06 00:38:00,30.1,27.8,29.96,NW,310,1.0,2.0,91,0.00,,,0.00,VWS V14.00,2013-02-06 05:38:00,
2013-02-06 00:43:00,30.0,27.7,29.96,NW,311,0.0,2.0,91,0.00,,,0.00,VWS V14.00,2013-02-06 05:43:00,
2013-02-06 00:48:00,30.0,27.7,29.96,NW,310,0.0,2.0,91,0.00,,,0.00,VWS V14.00,2013-02-06 05:48:00,
2013-02-06 00:53:00,29.9,27.6,29.96,NNW,330,0.0,2.0,91,0.00,,,0.00,VWS V14.00,2013-02-06 05:53:00,
2013-02-06 00:58:00,29.9,27.6,29.96,WNW,300,0.0,2.0,91,0.00,,,0.00,VWS V14.00,2013-02-06 05:58:00,
2013-02-06 01:00:00,29.9,27.6,29.96,WNW,300,0.0,2.0,91,0.00,,CLR,0.00,VWS V14.00,2013-02-06 06:00:00,
2013-02-06 01:03:00,30.0,27.7,29.96,WNW,300,0.0,1.0,91,0.00,,,0.00,VWS V14.00,2013-02-06 06:03:00,
2013-02-06 01:08:00,30.0,27.7,29.97,WNW,301,0.0,1.0,91,0.00,,,0.00,VWS V14.00,2013-02-06 06:08:00,
2013-02-06 01:13:00,30.0,27.7,29.97,WNW,300,0.0,1.0,91,0.00,,,0.00,VWS V14.00,2013-02-06 06:13:00,
2013-02-06 01:18:00,30.0,27.7,29.96,WNW,301,0.0,1.0,91,0.00,,,0.00,VWS V14.00,2013-02-06 06:18:00,
2013-02-06 01:23:00,29.9,27.6,29.96,WNW,300,0.0,1.0,91,0.00,,,0.00,VWS V14.00,2013-02-06 06:23:00,
2013-02-06 01:28:00,29.9,27.6,29.96,WNW,301,0.0,1.0,91,0.00,,,0.00,VWS V14.00,2013-02-06 06:28:00,
2013-02-06 01:30:00,30.0,27.7,29.96,WNW,300,0.0,1.0,91,0.00,,CLR,0.00,VWS V14.00,2013-02-06 06:30:00,
2013-02-06 01:33:00,30.0,27.7,29.96,WNW,300,0.0,0.0,91,0.00,,,0.00,VWS V14.00,2013-02-06 06:33:00,
2013-02-06 01:38:00,29.9,27.6,29.96,WNW,300,0.0,0.0,91,0.00,,,0.00,VWS V14.00,2013-02-06 06:38:00,
2013-02-06 01:43:00,29.9,27.6,29.97,WNW,300,0.0,0.0,91,0.00,,,0.00,VWS V14.00,2013-02-06 06:43:00,
2013-02-06 01:48:00,29.9,27.6,29.97,WNW,300,0.0,0.0,91,0.00,,,0.00,VWS V14.00,2013-02-06 06:48:00,
2013-02-06 01:53:00,29.9,27.6,29.97,WNW,300,0.0,0.0,91,0.00,,,0.00,VWS V14.00,2013-02-06 06:53:00,
2013-02-06 01:59:00,29.9,27.6,29.97,WNW,301,0.0,0.0,91,0.00,,,0.00,VWS V14.00,2013-02-06 06:59:00,
2013-02-06 02:00:00,29.9,27.6,29.97,WNW,301,0.0,0.0,91,0.00,,CLR,0.00,VWS V14.00,2013-02-06 07:00:00,
2013-02-06 02:04:00,29.9,27.6,29.97,WNW,300,0.0,0.0,91,0.00,,,0.00,VWS V14.00,2013-02-06 07:04:00,
2013-02-06 02:09:00,29.8,27.5,29.97,WNW,301,0.0,0.0,91,0.00,,,0.00,VWS V14.00,2013-02-06 07:09:00,
2013-02-06 02:14:00,29.7,27.4,29.97,WNW,301,0.0,0.0,91,0.00,,,0.00,VWS V14.00,2013-02-06 07:14:00,
2013-02-06 02:19:00,29.5,27.2,29.97,WNW,301,0.0,0.0,91,0.00,,,0.00,VWS V14.00,2013-02-06 07:19:00,
2013-02-06 02:24:00,29.4,27.1,29.96,WNW,300,0.0,0.0,91,0.00,,,0.00,VWS V14.00,2013-02-06 07:24:00,
2013-02-06 02:29:00,29.2,26.9,29.96,WNW,301,0.0,0.0,91,0.00,,,0.00,VWS V14.00,2013-02-06 07:29:00,
2013-02-06 02:30:00,29.1,26.8,29.96,WNW,301,0.0,0.0,91,0.00,,CLR,0.00,VWS V14.00,2013-02-06 07:30:00,
2013-02-06 02:34:00,28.8,26.5,29.96,WNW,300,0.0,0.0,91,0.00,,,0.00,VWS V14.00,2013-02-06 07:34:00,
2013-02-06 02:39:00,28.4,26.1,29.96,WNW,300,0.0,0.0,91,0.00,,,0.00,VWS V14.00,2013-02-06 07:39:00,
2013-02-06 02:44:00,28.1,26.1,29.97,WNW,301,0.0,0.0,92,0.00,,,0.00,VWS V14.00,2013-02-06 07:44:00,
2013-02-06 02:49:00,27.8,25.8,29.97,WNW,300,0.0,1.0,92,0.00,,,0.00,VWS V14.00,2013-02-06 07:49:00,
2013-02-06 02:54:00,27.7,25.7,29.97,WNW,301,0.0,1.0,92,0.00,,,0.00,VWS V14.00,2013-02-06 07:54:00,
2013-02-06 02:59:00,27.8,26.0,29.97,WNW,301,0.0,1.0,93,0.00,,,0.00,VWS V14.00,2013-02-06 07:59:00,
2013-02-06 03:00:00,27.8,26.0,29.97,WNW,301,0.0,1.0,93,0.00,,CLR,0.00,VWS V14.00,2013-02-06 08:00:00,
2013-02-06 03:04:00,27.8,26.0,29.97,WNW,301,0.0,0.0,93,0.00,,,0.00,VWS V14.00,2013-02-06 08:04:00,
2013-02-06 03:09:00,27.7,25.9,29.97,WNW,300,0.0,1.0,93,0.00,,,0.00,VWS V14.00,2013-02-06 08:09:00,
2013-02-06 03:14:00,27.8,26.0,29.97,WNW,301,0.0,1.0,93,0.00,,,0.00,VWS V14.00,2013-02-06 08:14:00,
2013-02-06 03:19:00,27.8,26.0,29.97,WNW,300,0.0,1.0,93,0.00,,,0.00,VWS V14.00,2013-02-06 08:19:00,
2013-02-06 03:24:00,28.0,26.2,29.97,WNW,300,0.0,1.0,93,0.00,,,0.00,VWS V14.00,2013-02-06 08:24:00,
2013-02-06 03:29:00,28.0,26.2,29.97,WNW,300,0.0,1.0,93,0.00,,,0.00,VWS V14.00,2013-02-06 08:29:00,
2013-02-06 03:30:00,25.8,24.1,29.99,SW,224,0.0,1.0,93,0.00,,CLR,0.00,VWS V14.00,2013-02-06 08:30:00,
2013-02-06 03:34:00,27.9,26.1,29.97,SSE,149,1.0,2.0,93,0.00,,,0.00,VWS V14.00,2013-02-06 08:34:00,
2013-02-06 03:39:00,27.7,25.9,29.97,SSE,149,0.0,2.0,93,0.00,,,0.00,VWS V14.00,2013-02-06 08:39:00,
2013-02-06 03:44:00,27.3,25.5,29.97,South,187,0.0,2.0,93,0.00,,,0.00,VWS V14.00,2013-02-06 08:44:00,
2013-02-06 03:49:00,27.1,25.4,29.98,SW,224,0.0,2.0,93,0.00,,,0.00,VWS V14.00,2013-02-06 08:49:00,
2013-02-06 03:54:00,27.1,25.4,29.98,SW,224,0.0,2.0,93,0.00,,,0.00,VWS V14.00,2013-02-06 08:54:00,
2013-02-06 03:59:00,27.3,25.8,29.98,SW,224,0.0,0.0,94,0.00,,,0.00,VWS V14.00,2013-02-06 08:59:00,
2013-02-06 04:00:00,27.3,25.8,29.98,SW,224,0.0,2.0,94,0.00,,CLR,0.00,VWS V14.00,2013-02-06 09:00:00,
2013-02-06 04:05:00,27.2,25.7,29.98,SW,224,0.0,0.0,94,0.00,,,0.00,VWS V14.00,2013-02-06 09:05:00,
2013-02-06 04:10:00,27.0,25.2,29.99,SW,224,0.0,1.0,93,0.00,,,0.00,VWS V14.00,2013-02-06 09:10:00,
2013-02-06 04:15:00,26.6,24.9,29.99,SW,224,0.0,1.0,93,0.00,,,0.00,VWS V14.00,2013-02-06 09:15:00,
2013-02-06 04:20:00,26.3,24.6,29.99,SW,224,0.0,1.0,93,0.00,,,0.00,VWS V14.00,2013-02-06 09:20:00,
2013-02-06 04:25:00,26.0,24.3,29.99,SW,224,0.0,1.0,93,0.00,,,0.00,VWS V14.00,2013-02-06 09:25:00,
2013-02-06 04:30:00,25.8,24.3,29.99,SW,224,0.0,0.0,94,0.00,,,0.00,VWS V14.00,2013-02-06 09:30:00,
2013-02-06 04:35:00,25.7,24.2,30.00,SW,224,0.0,0.0,94,0.00,,,0.00,VWS V14.00,2013-02-06 09:35:00,
2013-02-06 04:40:00,25.4,23.9,30.00,SW,224,0.0,0.0,94,0.00,,,0.00,VWS V14.00,2013-02-06 09:40:00,
2013-02-06 04:45:00,25.1,23.4,30.00,SW,234,0.0,0.0,93,0.00,,,0.00,VWS V14.00,2013-02-06 09:45:00,
2013-02-06 04:50:00,24.9,23.4,30.00,SW,234,0.0,0.0,94,0.00,,,0.00,VWS V14.00,2013-02-06 09:50:00,
2013-02-06 04:55:00,24.5,22.8,30.00,SW,234,0.0,0.0,93,0.00,,,0.00,VWS V14.00,2013-02-06 09:55:00,
2013-02-06 05:00:00,24.6,23.1,30.00,SW,235,0.0,0.0,94,0.00,,,0.00,VWS V14.00,2013-02-06 10:00:00,
2013-02-06 05:05:00,24.3,22.8,30.01,SW,235,0.0,0.0,94,0.00,,,0.00,VWS V14.00,2013-02-06 10:05:00,
2013-02-06 05:10:00,24.1,22.6,30.01,SW,235,0.0,1.0,94,0.00,,,0.00,VWS V14.00,2013-02-06 10:10:00,
2013-02-06 05:15:00,24.0,22.5,30.01,SW,234,0.0,1.0,94,0.00,,,0.00,VWS V14.00,2013-02-06 10:15:00,
2013-02-06 05:20:00,24.1,22.6,30.01,SW,234,0.0,1.0,94,0.00,,,0.00,VWS V14.00,2013-02-06 10:20:00,
2013-02-06 05:25:00,24.4,22.9,30.01,SW,234,0.0,1.0,94,0.00,,,0.00,VWS V14.00,2013-02-06 10:25:00,
2013-02-06 05:30:00,24.4,22.9,30.02,SW,235,0.0,1.0,94,0.00,,CLR,0.00,VWS V14.00,2013-02-06 10:30:00,
2013-02-06 05:31:00,24.3,22.8,30.02,SW,235,0.0,1.0,94,0.00,,,0.00,VWS V14.00,2013-02-06 10:31:00,
2013-02-06 05:36:00,24.4,22.9,30.02,SW,235,0.0,1.0,94,0.00,,,0.00,VWS V14.00,2013-02-06 10:36:00,
2013-02-06 05:41:00,24.2,22.7,30.03,West,269,1.0,1.0,94,0.00,,,0.00,VWS V14.00,2013-02-06 10:41:00,
2013-02-06 05:46:00,24.3,22.8,30.04,West,259,0.0,1.0,94,0.00,,,0.00,VWS V14.00,2013-02-06 10:46:00,
2013-02-06 05:51:00,24.4,22.9,30.04,WSW,256,0.0,1.0,94,0.00,,,0.00,VWS V14.00,2013-02-06 10:51:00,
2013-02-06 05:56:00,24.4,22.9,30.04,SW,233,0.0,1.0,94,0.00,,,0.00,VWS V14.00,2013-02-06 10:56:00,
2013-02-06 06:00:00,24.5,23.0,30.04,South,186,0.0,1.0,94,0.00,,CLR,0.00,VWS V14.00,2013-02-06 11:00:00,
2013-02-06 06:01:00,24.5,23.0,30.04,South,186,0.0,0.0,94,0.00,,,0.00,VWS V14.00,2013-02-06 11:01:00,
2013-02-06 06:06:00,24.4,22.9,30.04,South,186,0.0,0.0,94,0.00,,,0.00,VWS V14.00,2013-02-06 11:06:00,
2013-02-06 06:11:00,24.4,22.9,30.05,South,186,0.0,0.0,94,0.00,,,0.00,VWS V14.00,2013-02-06 11:11:00,
2013-02-06 06:16:00,24.5,23.0,30.05,SSW,207,0.0,1.0,94,0.00,,,0.00,VWS V14.00,2013-02-06 11:16:00,
2013-02-06 06:21:00,24.5,23.0,30.05,SSW,207,0.0,1.0,94,0.00,,,0.00,VWS V14.00,2013-02-06 11:21:00,
2013-02-06 06:26:00,24.5,23.0,30.06,SSW,207,0.0,1.0,94,0.00,,,0.00,VWS V14.00,2013-02-06 11:26:00,
2013-02-06 06:30:00,24.5,23.0,30.06,SSW,207,0.0,1.0,94,0.00,,CLR,0.00,VWS V14.00,2013-02-06 11:30:00,
2013-02-06 06:31:00,24.5,23.0,30.06,SSW,207,0.0,0.0,94,0.00,,,0.00,VWS V14.00,2013-02-06 11:31:00,
2013-02-06 06:36:00,24.5,22.8,30.06,SSW,207,0.0,0.0,93,0.00,,,0.00,VWS V14.00,2013-02-06 11:36:00,
2013-02-06 06:42:00,24.8,23.3,30.06,SSW,207,1.0,1.0,94,0.00,,,0.00,VWS V14.00,2013-02-06 11:42:00,
2013-02-06 06:47:00,25.0,23.5,30.06,SW,222,1.0,1.0,94,0.00,,,0.00,VWS V14.00,2013-02-06 11:47:00,
2013-02-06 06:52:00,25.1,23.6,30.06,SW,219,0.0,1.0,94,0.00,,,0.00,VWS V14.00,2013-02-06 11:52:00,
2013-02-06 06:57:00,25.0,23.3,30.07,SW,214,0.0,2.0,93,0.00,,,0.00,VWS V14.00,2013-02-06 11:57:00,
2013-02-06 07:00:00,24.8,23.1,30.07,SW,217,0.0,2.0,93,0.00,,CLR,0.00,VWS V14.00,2013-02-06 12:00:00,
2013-02-06 07:02:00,24.8,23.1,30.07,WSW,238,0.0,1.0,93,0.00,,,0.00,VWS V14.00,2013-02-06 12:02:00,
2013-02-06 07:07:00,24.9,23.4,30.07,SW,226,0.0,1.0,94,0.00,,,0.00,VWS V14.00,2013-02-06 12:07:00,
2013-02-06 07:12:00,25.0,23.5,30.07,WSW,243,0.0,2.0,94,0.00,,,0.00,VWS V14.00,2013-02-06 12:12:00,
2013-02-06 07:17:00,25.1,23.6,30.07,West,270,1.0,2.0,94,0.00,,,0.00,VWS V14.00,2013-02-06 12:17:00,
2013-02-06 07:22:00,25.3,23.8,30.08,SSW,209,0.0,3.0,94,0.00,,,0.00,VWS V14.00,2013-02-06 12:22:00,
2013-02-06 07:27:00,25.3,23.6,30.08,SW,225,1.0,3.0,93,0.00,,,0.00,VWS V14.00,2013-02-06 12:27:00,
2013-02-06 07:30:00,25.4,23.7,30.09,WSW,246,1.0,3.0,93,0.00,,CLR,0.00,VWS V14.00,2013-02-06 12:30:00,
2013-02-06 07:32:00,25.5,23.8,30.09,WSW,252,2.0,2.0,93,0.00,,,0.00,VWS V14.00,2013-02-06 12:32:00,
2013-02-06 07:37:00,26.0,24.5,30.09,SW,217,1.0,2.0,94,0.00,,,0.00,VWS V14.00,2013-02-06 12:37:00,
2013-02-06 07:42:00,26.3,24.6,30.10,SW,215,0.0,2.0,93,0.00,,,0.00,VWS V14.00,2013-02-06 12:42:00,
2013-02-06 07:47:00,26.5,24.8,30.10,SSW,195,0.0,2.0,93,0.00,,,0.00,VWS V14.00,2013-02-06 12:47:00,
2013-02-06 07:53:00,26.9,25.1,30.11,WSW,253,0.0,3.0,93,0.00,,,0.00,VWS V14.00,2013-02-06 12:53:00,
2013-02-06 07:58:00,27.3,25.5,30.11,SSW,203,0.0,3.0,93,0.00,,,0.00,VWS V14.00,2013-02-06 12:58:00,
2013-02-06 08:00:00,27.4,25.6,30.11,SSW,203,0.0,3.0,93,0.00,,CLR,0.00,VWS V14.00,2013-02-06 13:00:00,
2013-02-06 08:03:00,27.5,25.5,30.11,SSW,198,1.0,2.0,92,0.00,,,0.00,VWS V14.00,2013-02-06 13:03:00,
2013-02-06 08:08:00,28.0,26.0,30.11,SSW,194,0.0,2.0,92,0.00,,,0.00,VWS V14.00,2013-02-06 13:08:00,
2013-02-06 08:13:00,28.3,26.0,30.11,SSW,200,0.0,2.0,91,0.00,,,0.00,VWS V14.00,2013-02-06 13:13:00,
2013-02-06 08:18:00,28.7,26.4,30.12,SSW,204,0.0,2.0,91,0.00,,,0.00,VWS V14.00,2013-02-06 13:18:00,
2013-02-06 08:23:00,29.3,26.7,30.12,SSW,204,0.0,2.0,90,0.00,,,0.00,VWS V14.00,2013-02-06 13:23:00,
2013-02-06 08:28:00,30.0,26.9,30.12,West,259,0.0,2.0,88,0.00,,,0.00,VWS V14.00,2013-02-06 13:28:00,
2013-02-06 08:30:00,30.1,27.0,30.12,SSE,166,1.0,4.0,88,0.00,,CLR,0.00,VWS V14.00,2013-02-06 13:30:00,
2013-02-06 08:33:00,30.3,26.6,30.12,SSW,212,0.0,4.0,86,0.00,,,0.00,VWS V14.00,2013-02-06 13:33:00,
2013-02-06 08:38:00,30.8,26.8,30.12,SW,226,2.0,4.0,85,0.00,,,0.00,VWS V14.00,2013-02-06 13:38:00,
2013-02-06 08:43:00,31.1,26.0,30.11,WNW,301,0.0,4.0,81,0.00,,,0.00,VWS V14.00,2013-02-06 13:43:00,
2013-02-06 08:48:00,31.7,26.5,30.12,SW,224,0.0,4.0,81,0.00,,,0.00,VWS V14.00,2013-02-06 13:48:00,
2013-02-06 08:53:00,32.0,26.5,30.12,SSW,202,1.0,4.0,80,0.00,,,0.00,VWS V14.00,2013-02-06 13:53:00,
2013-02-06 08:58:00,32.1,26.3,30.12,WNW,290,1.0,4.0,79,0.00,,,0.00,VWS V14.00,2013-02-06 13:58:00,
2013-02-06 09:00:00,32.2,26.4,30.12,West,262,1.0,4.0,79,0.00,,CLR,0.00,VWS V14.00,2013-02-06 14:00:00,
2013-02-06 09:03:00,32.3,25.9,30.13,NW,315,0.0,6.0,77,0.00,,,0.00,VWS V14.00,2013-02-06 14:03:00,
2013-02-06 09:08:00,32.8,26.7,30.13,West,276,4.0,6.0,78,0.00,,,0.00,VWS V14.00,2013-02-06 14:08:00,
2013-02-06 09:13:00,33.2,26.1,30.13,West,269,2.0,6.0,75,0.00,,,0.00,VWS V14.00,2013-02-06 14:13:00,
2013-02-06 09:18:00,33.5,25.5,30.13,West,280,3.0,10.0,72,0.00,,,0.00,VWS V14.00,2013-02-06 14:18:00,
2013-02-06 09:23:00,33.7,25.3,30.14,NW,315,3.0,10.0,71,0.00,,,0.00,VWS V14.00,2013-02-06 14:23:00,
2013-02-06 09:28:00,33.8,25.4,30.14,NW,322,4.0,10.0,71,0.00,,,0.00,VWS V14.00,2013-02-06 14:28:00,
2013-02-06 09:30:00,33.8,25.4,30.14,NW,307,6.0,10.0,71,0.00,,CLR,0.00,VWS V14.00,2013-02-06 14:30:00,
2013-02-06 09:34:00,33.8,25.1,30.14,NW,312,4.0,6.0,70,0.00,,,0.00,VWS V14.00,2013-02-06 14:34:00,
2013-02-06 09:39:00,33.8,25.4,30.15,West,271,1.0,9.0,71,0.00,,,0.00,VWS V14.00,2013-02-06 14:39:00,
2013-02-06 09:44:00,34.0,25.6,30.15,NW,322,0.0,9.0,71,0.00,,,0.00,VWS V14.00,2013-02-06 14:44:00,
2013-02-06 09:49:00,34.1,24.7,30.15,NW,307,3.0,9.0,68,0.00,,,0.00,VWS V14.00,2013-02-06 14:49:00,
2013-02-06 09:54:00,34.2,25.1,30.15,NNW,338,6.0,9.0,69,0.00,,,0.00,VWS V14.00,2013-02-06 14:54:00,
2013-02-06 09:59:00,34.3,24.9,30.15,NW,305,7.0,9.0,68,0.00,,,0.00,VWS V14.00,2013-02-06 14:59:00,
2013-02-06 10:00:00,34.4,25.0,30.15,WNW,303,6.0,9.0,68,0.00,,CLR,0.00,VWS V14.00,2013-02-06 15:00:00,
2013-02-06 10:04:00,34.4,24.6,30.16,WNW,295,4.0,10.0,67,0.00,,,0.00,VWS V14.00,2013-02-06 15:04:00,
2013-02-06 10:09:00,34.4,24.2,30.15,WNW,301,4.0,13.0,66,0.00,,,0.00,VWS V14.00,2013-02-06 15:09:00,
2013-02-06 10:14:00,34.7,24.9,30.15,NNE,16,7.0,13.0,67,0.00,,,0.00,VWS V14.00,2013-02-06 15:14:00,
2013-02-06 10:19:00,34.7,24.5,30.15,WNW,294,2.0,13.0,66,0.00,,,0.00,VWS V14.00,2013-02-06 15:19:00,
2013-02-06 10:24:00,34.8,24.2,30.16,NW,307,0.0,13.0,65,0.00,,,0.00,VWS V14.00,2013-02-06 15:24:00,
2013-02-06 10:29:00,35.0,24.4,30.16,South,190,1.0,13.0,65,0.00,,,0.00,VWS V14.00,2013-02-06 15:29:00,
2013-02-06 10:30:00,35.0,24.4,30.16,WNW,295,5.0,13.0,65,0.00,,CLR,0.00,VWS V14.00,2013-02-06 15:30:00,
2013-02-06 10:34:00,35.1,24.9,30.16,NNW,340,2.0,12.0,66,0.00,,BKN048,0.00,VWS V14.00,2013-02-06 15:34:00,
2013-02-06 10:39:00,35.2,24.6,30.16,NW,304,4.0,12.0,65,0.00,,BKN048,0.00,VWS V14.00,2013-02-06 15:39:00,
2013-02-06 10:44:00,35.4,24.8,30.16,NW,307,1.0,12.0,65,0.00,,BKN048,0.00,VWS V14.00,2013-02-06 15:44:00,
2013-02-06 10:49:00,35.7,25.5,30.16,NNW,329,1.0,12.0,66,0.00,,BKN048,0.00,VWS V14.00,2013-02-06 15:49:00,
2013-02-06 10:54:00,35.9,24.5,30.16,NNW,335,5.0,12.0,63,0.00,,BKN048,0.00,VWS V14.00,2013-02-06 15:54:00,
2013-02-06 11:00:00,36.3,24.5,30.16,WNW,287,2.0,2.0,62,0.00,,BKN048,0.00,VWS V14.00,2013-02-06 16:00:00,
2013-02-06 11:05:00,37.8,25.2,30.16,NNE,19,2.0,14.0,60,0.00,,BKN050,0.00,VWS V14.00,2013-02-06 16:05:00,
2013-02-06 11:10:00,37.8,24.8,30.16,WNW,301,9.0,14.0,59,0.00,,BKN050,0.00,VWS V14.00,2013-02-06 16:10:00,
2013-02-06 11:15:00,37.3,23.9,30.16,West,280,5.0,14.0,58,0.01,,BKN050,0.01,VWS V14.00,2013-02-06 16:15:00,
2013-02-06 11:20:00,37.0,23.6,30.16,NW,305,5.0,14.0,58,0.01,,BKN050,0.01,VWS V14.00,2013-02-06 16:20:00,
2013-02-06 11:25:00,37.4,24.4,30.16,NW,320,7.0,14.0,59,0.01,,BKN050,0.01,VWS V14.00,2013-02-06 16:25:00,
2013-02-06 11:30:00,37.8,24.4,30.16,WNW,285,4.0,7.0,58,0.01,,BKN050,0.01,VWS V14.00,2013-02-06 16:30:00,
2013-02-06 11:35:00,37.7,23.9,30.16,WNW,289,2.0,9.0,57,0.01,,BKN050,0.01,VWS V14.00,2013-02-06 16:35:00,
2013-02-06 11:40:00,37.3,23.5,30.16,WNW,288,5.0,11.0,57,0.01,,BKN050,0.01,VWS V14.00,2013-02-06 16:40:00,
2013-02-06 11:45:00,37.0,24.0,30.16,WNW,285,1.0,11.0,59,0.01,,BKN050,0.01,VWS V14.00,2013-02-06 16:45:00,
2013-02-06 11:50:00,37.9,25.3,30.16,WNW,300,2.0,11.0,60,0.02,,BKN050,0.02,VWS V14.00,2013-02-06 16:50:00,
2013-02-06 11:55:00,38.8,24.9,30.16,West,260,2.0,11.0,57,0.02,,BKN050,0.02,VWS V14.00,2013-02-06 16:55:00,
2013-02-06 12:00:00,38.8,23.1,30.16,NNW,342,6.0,10.0,53,0.02,,BKN050,0.02,VWS V14.00,2013-02-06 17:00:00,
2013-02-06 12:05:00,38.0,23.3,30.16,NNW,333,6.0,12.0,55,0.02,,OVC043,0.02,VWS V14.00,2013-02-06 17:05:00,
2013-02-06 12:10:00,37.5,22.4,30.16,NW,318,4.0,12.0,54,0.02,,OVC043,0.02,VWS V14.00,2013-02-06 17:10:00,
2013-02-06 12:16:00,37.2,22.5,30.16,NW,305,4.0,16.0,55,0.02,,OVC043,0.02,VWS V14.00,2013-02-06 17:16:00,
2013-02-06 12:21:00,37.1,22.9,30.16,NW,315,4.0,16.0,56,0.02,,OVC043,0.02,VWS V14.00,2013-02-06 17:21:00,
2013-02-06 12:26:00,37.4,23.1,30.16,North,350,4.0,16.0,56,0.02,,OVC043,0.02,VWS V14.00,2013-02-06 17:26:00,
2013-02-06 12:30:00,37.6,23.3,30.16,West,263,3.0,16.0,56,0.02,,CLR,0.02,VWS V14.00,2013-02-06 17:30:00,
2013-02-06 12:31:00,37.8,23.5,30.16,West,266,3.0,9.0,56,0.01,,OVC043,0.02,VWS V14.00,2013-02-06 17:31:00,
2013-02-06 12:36:00,39.2,24.8,30.16,WNW,303,13.0,13.0,56,0.01,,OVC043,0.02,VWS V14.00,2013-02-06 17:36:00,
2013-02-06 12:41:00,38.5,22.9,30.16,WNW,294,6.0,13.0,53,0.01,,OVC043,0.02,VWS V14.00,2013-02-06 17:41:00,
2013-02-06 12:46:00,38.5,23.3,30.16,NW,312,4.0,13.0,54,0.01,,OVC043,0.02,VWS V14.00,2013-02-06 17:46:00,
2013-02-06 12:51:00,37.9,23.2,30.15,West,276,1.0,13.0,55,0.01,,OVC043,0.02,VWS V14.00,2013-02-06 17:51:00,
2013-02-06 12:56:00,37.4,22.7,30.16,NNW,330,5.0,13.0,55,0.01,,OVC043,0.02,VWS V14.00,2013-02-06 17:56:00,
2013-02-06 13:00:00,37.4,23.6,30.16,NW,323,4.0,13.0,57,0.01,,CLR,0.02,VWS V14.00,2013-02-06 18:00:00,
2013-02-06 13:01:00,37.5,23.7,30.15,WSW,256,3.0,9.0,57,0.00,,OVC047,0.02,VWS V14.00,2013-02-06 18:01:00,
2013-02-06 13:06:00,38.5,24.6,30.16,NW,310,0.0,9.0,57,0.00,,OVC047,0.02,VWS V14.00,2013-02-06 18:06:00,
2013-02-06 13:11:00,39.1,23.9,30.15,WSW,255,7.0,10.0,54,0.00,,OVC047,0.02,VWS V14.00,2013-02-06 18:11:00,
2013-02-06 13:16:00,38.3,23.6,30.16,West,281,3.0,13.0,55,0.00,,OVC047,0.02,VWS V14.00,2013-02-06 18:16:00,
2013-02-06 13:21:00,38.1,23.8,30.16,West,276,5.0,13.0,56,0.00,,OVC047,0.02,VWS V14.00,2013-02-06 18:21:00,
2013-02-06 13:26:00,38.3,24.0,30.16,WNW,287,3.0,13.0,56,0.00,,OVC047,0.02,VWS V14.00,2013-02-06 18:26:00,
2013-02-06 13:30:00,38.5,24.2,30.16,WSW,241,2.0,13.0,56,0.00,,CLR,0.02,VWS V14.00,2013-02-06 18:30:00,
2013-02-06 13:31:00,38.8,24.5,30.16,WNW,297,2.0,7.0,56,0.00,,OVC047,0.02,VWS V14.00,2013-02-06 18:31:00,
2013-02-06 13:36:00,38.9,24.1,30.16,WNW,295,2.0,11.0,55,0.00,,OVC047,0.02,VWS V14.00,2013-02-06 18:36:00,
2013-02-06 13:41:00,38.6,23.8,30.16,WNW,292,9.0,12.0,55,0.00,,OVC047,0.02,VWS V14.00,2013-02-06 18:41:00,
2013-02-06 13:46:00,38.2,23.5,30.16,NW,312,6.0,12.0,55,0.00,,OVC047,0.02,VWS V14.00,2013-02-06 18:46:00,
2013-02-06 13:52:00,38.2,23.5,30.17,WSW,252,1.0,12.0,55,0.00,,OVC047,0.02,VWS V14.00,2013-02-06 18:52:00,
2013-02-06 13:57:00,38.0,23.7,30.17,NW,323,3.0,12.0,56,0.00,,OVC047,0.02,VWS V14.00,2013-02-06 18:57:00,
2013-02-06 14:00:00,37.9,23.6,30.17,NW,308,2.0,12.0,56,0.00,,CLR,0.02,VWS V14.00,2013-02-06 19:00:00,
2013-02-06 14:02:00,37.9,23.6,30.17,WNW,287,2.0,7.0,56,0.00,,OVC045,0.02,VWS V14.00,2013-02-06 19:02:00,
2013-02-06 14:07:00,37.8,23.5,30.17,NW,309,3.0,7.0,56,0.00,,OVC045,0.02,VWS V14.00,2013-02-06 19:07:00,
2013-02-06 14:12:00,37.6,22.0,30.17,West,271,6.0,11.0,53,0.00,,OVC045,0.02,VWS V14.00,2013-02-06 19:12:00,
2013-02-06 14:17:00,37.9,22.3,30.17,NW,321,8.0,12.0,53,0.00,,OVC045,0.02,VWS V14.00,2013-02-06 19:17:00,
2013-02-06 14:22:00,38.1,22.5,30.17,WNW,298,4.0,12.0,53,0.00,,OVC045,0.02,VWS V14.00,2013-02-06 19:22:00,
2013-02-06 14:27:00,38.7,22.6,30.17,WNW,283,4.0,12.0,52,0.00,,OVC045,0.02,VWS V14.00,2013-02-06 19:27:00,
2013-02-06 14:30:00,38.9,22.8,30.17,NNW,333,6.0,12.0,52,0.00,,CLR,0.02,VWS V14.00,2013-02-06 19:30:00,
2013-02-06 14:32:00,38.8,22.2,30.17,NW,319,4.0,12.0,51,0.00,,OVC045,0.02,VWS V14.00,2013-02-06 19:32:00,
2013-02-06 14:37:00,38.4,21.9,30.17,WSW,250,2.0,12.0,51,0.00,,OVC045,0.02,VWS V14.00,2013-02-06 19:37:00,
2013-02-06 14:42:00,38.5,22.0,30.17,North,4,8.0,12.0,51,0.00,,OVC045,0.02,VWS V14.00,2013-02-06 19:42:00,
2013-02-06 14:47:00,38.8,21.3,30.17,SW,218,0.0,15.0,49,0.00,,OVC045,0.02,VWS V14.00,2013-02-06 19:47:00,
2013-02-06 14:52:00,39.5,22.4,30.17,NW,305,4.0,15.0,50,0.00,,OVC045,0.02,VWS V14.00,2013-02-06 19:52:00,
2013-02-06 14:57:00,39.5,21.5,30.17,NW,323,2.0,15.0,48,0.00,,OVC045,0.02,VWS V14.00,2013-02-06 19:57:00,
2013-02-06 15:00:00,39.6,21.5,30.17,West,264,1.0,15.0,48,0.00,,CLR,0.02,VWS V14.00,2013-02-06 20:00:00,
2013-02-06 15:02:00,39.7,21.6,30.18,West,273,1.0,10.0,48,0.00,,SCT047,0.02,VWS V14.00,2013-02-06 20:02:00,
2013-02-06 15:07:00,39.7,21.6,30.18,WNW,287,5.0,11.0,48,0.00,,SCT047,0.02,VWS V14.00,2013-02-06 20:07:00,
2013-02-06 15:13:00,39.6,21.5,30.18,WNW,289,6.0,11.0,48,0.00,,SCT047,0.02,VWS V14.00,2013-02-06 20:13:00,
2013-02-06 15:18:00,39.5,21.9,30.18,WSW,246,2.0,12.0,49,0.00,,SCT047,0.02,VWS V14.00,2013-02-06 20:18:00,
2013-02-06 15:23:00,39.6,22.5,30.18,NW,304,1.0,12.0,50,0.00,,SCT047,0.02,VWS V14.00,2013-02-06 20:23:00,
2013-02-06 15:28:00,39.6,22.0,30.19,WNW,288,4.0,12.0,49,0.00,,SCT047,0.02,VWS V14.00,2013-02-06 20:28:00,
2013-02-06 15:30:00,39.6,22.5,30.19,WSW,249,3.0,12.0,50,0.00,,CLR,0.02,VWS V14.00,2013-02-06 20:30:00,
2013-02-06 15:33:00,39.2,21.7,30.19,NW,323,2.0,9.0,49,0.00,,SCT047,0.02,VWS V14.00,2013-02-06 20:33:00,
2013-02-06 15:38:00,38.7,21.7,30.19,WNW,297,2.0,9.0,50,0.00,,SCT047,0.02,VWS V14.00,2013-02-06 20:38:00,
2013-02-06 15:43:00,38.3,21.8,30.19,NE,56,0.0,10.0,51,0.00,,SCT047,0.02,VWS V14.00,2013-02-06 20:43:00,
2013-02-06 15:48:00,38.4,20.9,30.19,NNW,333,2.0,13.0,49,0.00,,SCT047,0.02,VWS V14.00,2013-02-06 20:48:00,
2013-02-06 15:53:00,38.3,21.3,30.20,NNW,342,6.0,13.0,50,0.00,,SCT047,0.02,VWS V14.00,2013-02-06 20:53:00,
2013-02-06 15:58:00,38.3,21.3,30.20,ENE,60,5.0,13.0,50,0.00,,SCT047,0.02,VWS V14.00,2013-02-06 20:58:00,
2013-02-06 16:00:00,38.3,21.3,30.20,WNW,302,4.0,13.0,50,0.00,,CLR,0.02,VWS V14.00,2013-02-06 21:00:00,
2013-02-06 16:03:00,38.3,20.8,30.20,NW,314,8.0,10.0,49,0.00,,FEW047,0.02,VWS V14.00,2013-02-06 21:03:00,
2013-02-06 16:08:00,38.2,21.2,30.20,WNW,284,3.0,13.0,50,0.00,,FEW047,0.02,VWS V14.00,2013-02-06 21:08:00,
2013-02-06 16:13:00,38.3,21.3,30.20,WNW,294,4.0,13.0,50,0.00,,FEW047,0.02,VWS V14.00,2013-02-06 21:13:00,
2013-02-06 16:18:00,38.2,21.7,30.21,North,349,4.0,13.0,51,0.00,,FEW047,0.02,VWS V14.00,2013-02-06 21:18:00,
2013-02-06 16:23:00,38.1,21.6,30.21,NW,307,3.0,13.0,51,0.00,,FEW047,0.02,VWS V14.00,2013-02-06 21:23:00,
2013-02-06 16:28:00,38.1,21.6,30.21,WNW,302,3.0,13.0,51,0.00,,FEW047,0.02,VWS V14.00,2013-02-06 21:28:00,
2013-02-06 16:30:00,38.1,21.6,30.21,WNW,303,6.0,13.0,51,0.00,,CLR,0.02,VWS V14.00,2013-02-06 21:30:00,
2013-02-06 16:33:00,38.1,21.6,30.21,NW,312,5.0,7.0,51,0.00,,FEW047,0.02,VWS V14.00,2013-02-06 21:33:00,
2013-02-06 16:39:00,38.0,21.5,30.22,NW,326,4.0,8.0,51,0.00,,FEW047,0.02,VWS V14.00,2013-02-06 21:39:00,
2013-02-06 16:44:00,37.9,21.4,30.22,WSW,255,1.0,8.0,51,0.00,,FEW047,0.02,VWS V14.00,2013-02-06 21:44:00,
2013-02-06 16:49:00,37.9,21.9,30.22,West,276,1.0,8.0,52,0.00,,FEW047,0.02,VWS V14.00,2013-02-06 21:49:00,
2013-02-06 16:54:00,37.7,21.7,30.22,NW,316,0.0,8.0,52,0.00,,FEW047,0.02,VWS V14.00,2013-02-06 21:54:00,
2013-02-06 16:59:00,37.5,21.9,30.22,West,263,1.0,8.0,53,0.00,,FEW047,0.02,VWS V14.00,2013-02-06 21:59:00,
2013-02-06 17:00:00,37.4,21.9,30.22,WNW,295,1.0,8.0,53,0.00,,CLR,0.02,VWS V14.00,2013-02-06 22:00:00,
2013-02-06 17:04:00,37.0,21.5,30.23,NW,315,0.0,4.0,53,0.00,,BKN049,0.02,VWS V14.00,2013-02-06 22:04:00,
2013-02-06 17:09:00,36.6,21.5,30.23,NW,311,2.0,9.0,54,0.00,,BKN049,0.02,VWS V14.00,2013-02-06 22:09:00,
2013-02-06 17:14:00,36.3,21.3,30.23,NW,319,2.0,9.0,54,0.00,,BKN049,0.02,VWS V14.00,2013-02-06 22:14:00,
2013-02-06 17:19:00,36.1,21.5,30.23,WNW,287,0.0,9.0,55,0.00,,BKN049,0.02,VWS V14.00,2013-02-06 22:19:00,
2013-02-06 17:24:00,36.0,21.4,30.24,WNW,303,5.0,9.0,55,0.00,,BKN049,0.02,VWS V14.00,2013-02-06 22:24:00,
2013-02-06 17:29:00,35.8,21.6,30.24,NW,311,3.0,9.0,56,0.00,,BKN049,0.02,VWS V14.00,2013-02-06 22:29:00,
2013-02-06 17:30:00,35.8,21.6,30.24,NW,309,3.0,9.0,56,0.00,,CLR,0.02,VWS V14.00,2013-02-06 22:30:00,
2013-02-06 17:34:00,35.5,21.4,30.24,NNW,328,0.0,4.0,56,0.00,,BKN049,0.02,VWS V14.00,2013-02-06 22:34:00,
2013-02-06 17:39:00,35.4,21.7,30.25,WSW,256,1.0,4.0,57,0.00,,BKN049,0.02,VWS V14.00,2013-02-06 22:39:00,
2013-02-06 17:44:00,35.0,21.3,30.25,WSW,249,0.0,4.0,57,0.00,,BKN049,0.02,VWS V14.00,2013-02-06 22:44:00,
2013-02-06 17:49:00,34.4,21.2,30.26,NW,321,1.0,4.0,58,0.00,,BKN049,0.02,VWS V14.00,2013-02-06 22:49:00,
2013-02-06 17:55:00,34.2,21.4,30.26,NW,320,0.0,4.0,59,0.00,,BKN049,0.02,VWS V14.00,2013-02-06 22:55:00,
2013-02-06 18:00:00,33.8,21.0,30.26,NW,320,0.0,0.0,59,0.00,,BKN049,0.02,VWS V14.00,2013-02-06 23:00:00,
2013-02-06 18:05:00,33.4,21.0,30.26,NW,321,0.0,0.0,60,0.00,,CLR,0.02,VWS V14.00,2013-02-06 23:05:00,
2013-02-06 18:10:00,33.8,21.4,30.27,WNW,300,0.0,2.0,60,0.00,,CLR,0.02,VWS V14.00,2013-02-06 23:10:00,
2013-02-06 18:15:00,33.6,21.2,30.27,SSE,158,0.0,2.0,60,0.00,,CLR,0.02,VWS V14.00,2013-02-06 23:15:00,
2013-02-06 18:20:00,33.5,21.1,30.27,West,260,0.0,2.0,60,0.00,,CLR,0.02,VWS V14.00,2013-02-06 23:20:00,
2013-02-06 18:25:00,33.7,21.3,30.27,NNW,338,0.0,4.0,60,0.00,,CLR,0.02,VWS V14.00,2013-02-06 23:25:00,
2013-02-06 18:30:00,33.4,21.0,30.27,NNW,338,0.0,0.0,60,0.00,,CLR,0.02,VWS V14.00,2013-02-06 23:30:00,
2013-02-06 18:35:00,33.1,21.1,30.28,NNW,337,0.0,0.0,61,0.00,,CLR,0.02,VWS V14.00,2013-02-06 23:35:00,
2013-02-06 18:40:00,32.9,20.9,30.28,NW,310,0.0,1.0,61,0.00,,CLR,0.02,VWS V14.00,2013-02-06 23:40:00,
2013-02-06 18:45:00,32.6,21.0,30.28,NW,310,0.0,1.0,62,0.00,,CLR,0.02,VWS V14.00,2013-02-06 23:45:00,
2013-02-06 18:50:00,32.3,20.8,30.29,NW,307,3.0,4.0,62,0.00,,CLR,0.02,VWS V14.00,2013-02-06 23:50:00,
2013-02-06 18:55:00,32.7,21.1,30.29,NNW,340,0.0,4.0,62,0.00,,CLR,0.02,VWS V14.00,2013-02-06 23:55:00,
2013-02-06 19:00:00,33.1,21.1,30.29,NW,304,0.0,0.0,61,0.00,,CLR,0.02,VWS V14.00,2013-02-07 00:00:00,
2013-02-06 19:05:00,33.1,21.1,30.30,NW,320,0.0,3.0,61,0.00,,CLR,0.02,VWS V14.00,2013-02-07 00:05:00,
2013-02-06 19:10:00,32.6,20.7,30.30,NNW,329,0.0,3.0,61,0.00,,CLR,0.02,VWS V14.00,2013-02-07 00:10:00,
2013-02-06 19:16:00,32.2,20.7,30.30,NNW,329,0.0,3.0,62,0.00,,CLR,0.02,VWS V14.00,2013-02-07 00:16:00,
2013-02-06 19:21:00,32.0,20.5,30.30,NW,321,0.0,3.0,62,0.00,,CLR,0.02,VWS V14.00,2013-02-07 00:21:00,
2013-02-06 19:26:00,31.5,20.4,30.30,NW,326,0.0,3.0,63,0.00,,CLR,0.02,VWS V14.00,2013-02-07 00:26:00,
2013-02-06 19:30:00,31.2,20.5,30.30,NNW,328,0.0,3.0,64,0.00,,CLR,0.02,VWS V14.00,2013-02-07 00:30:00,
2013-02-06 19:31:00,31.1,20.4,30.30,NW,321,2.0,2.0,64,0.00,,CLR,0.02,VWS V14.00,2013-02-07 00:31:00,
2013-02-06 19:36:00,31.0,20.6,30.30,NNW,342,1.0,3.0,65,0.00,,CLR,0.02,VWS V14.00,2013-02-07 00:36:00,
2013-02-06 19:41:00,31.3,20.5,30.31,North,8,1.0,4.0,64,0.00,,CLR,0.02,VWS V14.00,2013-02-07 00:41:00,
2013-02-06 19:46:00,31.0,20.3,30.31,North,354,0.0,4.0,64,0.00,,CLR,0.02,VWS V14.00,2013-02-07 00:46:00,
2013-02-06 19:51:00,30.6,19.9,30.31,North,356,0.0,4.0,64,0.00,,CLR,0.02,VWS V14.00,2013-02-07 00:51:00,
2013-02-06 19:56:00,30.5,19.4,30.32,NW,307,2.0,4.0,63,0.00,,CLR,0.02,VWS V14.00,2013-02-07 00:56:00,
2013-02-06 20:00:00,30.8,19.0,30.32,NNW,338,0.0,4.0,61,0.00,,CLR,0.02,VWS V14.00,2013-02-07 01:00:00,
2013-02-06 20:01:00,30.9,18.7,30.32,NNW,334,0.0,0.0,60,0.00,,CLR,0.02,VWS V14.00,2013-02-07 01:01:00,
2013-02-06 20:06:00,31.0,18.0,30.33,NNW,328,0.0,1.0,58,0.00,,CLR,0.02,VWS V14.00,2013-02-07 01:06:00,
2013-02-06 20:11:00,31.2,17.8,30.33,NNW,330,1.0,1.0,57,0.00,,CLR,0.02,VWS V14.00,2013-02-07 01:11:00,
2013-02-06 20:16:00,30.8,17.8,30.33,NNW,330,0.0,1.0,58,0.00,,CLR,0.02,VWS V14.00,2013-02-07 01:16:00,
2013-02-06 20:21:00,29.7,17.5,30.33,NW,314,1.0,1.0,60,0.00,,CLR,0.02,VWS V14.00,2013-02-07 01:21:00,
2013-02-06 20:26:00,29.7,17.1,30.33,NW,311,0.0,1.0,59,0.00,,CLR,0.02,VWS V14.00,2013-02-07 01:26:00,
2013-02-06 20:30:00,29.8,16.0,30.35,NW,318,0.0,6.0,56,0.00,,CLR,0.02,VWS V14.00,2013-02-07 01:30:00,
2013-02-06 20:31:00,29.6,17.0,30.33,NW,321,0.0,0.0,59,0.00,,CLR,0.02,VWS V14.00,2013-02-07 01:31:00,
2013-02-06 20:36:00,29.2,17.4,30.33,NE,40,0.0,1.0,61,0.00,,CLR,0.02,VWS V14.00,2013-02-07 01:36:00,
2013-02-06 20:41:00,29.0,17.2,30.33,NNE,19,1.0,4.0,61,0.00,,CLR,0.02,VWS V14.00,2013-02-07 01:41:00,
2013-02-06 20:46:00,29.1,17.3,30.33,North,360,1.0,4.0,61,0.00,,CLR,0.02,VWS V14.00,2013-02-07 01:46:00,
2013-02-06 20:52:00,29.3,16.8,30.34,WNW,299,0.0,4.0,59,0.00,,CLR,0.02,VWS V14.00,2013-02-07 01:52:00,
2013-02-06 20:57:00,29.5,17.0,30.34,NNW,331,1.0,4.0,59,0.00,,CLR,0.02,VWS V14.00,2013-02-07 01:57:00,
2013-02-06 21:00:00,29.5,16.6,30.34,North,11,0.0,4.0,58,0.00,,CLR,0.02,VWS V14.00,2013-02-07 02:00:00,
2013-02-06 21:02:00,29.4,16.5,30.34,NNW,331,0.0,2.0,58,0.00,,CLR,0.02,VWS V14.00,2013-02-07 02:02:00,
2013-02-06 21:07:00,29.7,16.4,30.34,NNW,336,0.0,4.0,57,0.00,,CLR,0.02,VWS V14.00,2013-02-07 02:07:00,
2013-02-06 21:12:00,29.8,16.0,30.34,NNW,339,0.0,4.0,56,0.00,,CLR,0.02,VWS V14.00,2013-02-07 02:12:00,
2013-02-06 21:17:00,29.8,16.4,30.34,NNE,13,3.0,4.0,57,0.00,,CLR,0.02,VWS V14.00,2013-02-07 02:17:00,
2013-02-06 21:22:00,29.9,16.5,30.34,NNW,333,0.0,6.0,57,0.00,,CLR,0.02,VWS V14.00,2013-02-07 02:22:00,
2013-02-06 21:27:00,29.9,16.1,30.35,NW,317,0.0,6.0,56,0.00,,CLR,0.02,VWS V14.00,2013-02-07 02:27:00,
2013-02-06 21:30:00,29.8,16.0,30.35,NW,318,0.0,6.0,56,0.00,,CLR,0.02,VWS V14.00,2013-02-07 02:30:00,
2013-02-06 21:32:00,29.6,15.8,30.35,NW,318,0.0,0.0,56,0.00,,CLR,0.02,VWS V14.00,2013-02-07 02:32:00,
2013-02-06 21:37:00,29.2,16.3,30.35,NW,318,0.0,1.0,58,0.00,,CLR,0.02,VWS V14.00,2013-02-07 02:37:00,
2013-02-06 21:42:00,29.2,15.5,30.36,NE,53,0.0,3.0,56,0.00,,CLR,0.02,VWS V14.00,2013-02-07 02:42:00,
2013-02-06 21:47:00,29.3,15.6,30.36,NE,54,0.0,3.0,56,0.00,,CLR,0.02,VWS V14.00,2013-02-07 02:47:00,
2013-02-06 21:52:00,28.9,15.6,30.36,NE,53,0.0,3.0,57,0.00,,CLR,0.02,VWS V14.00,2013-02-07 02:52:00,
2013-02-06 21:57:00,28.6,15.3,30.36,NNW,345,0.0,3.0,57,0.00,,CLR,0.02,VWS V14.00,2013-02-07 02:57:00,
2013-02-06 22:00:00,28.6,15.7,30.36,NNW,344,0.0,3.0,58,0.00,,CLR,0.02,VWS V14.00,2013-02-07 03:00:00,
2013-02-06 22:03:00,28.1,16.0,30.37,NNW,345,1.0,1.0,60,0.00,,CLR,0.02,VWS V14.00,2013-02-07 03:03:00,
2013-02-06 22:08:00,27.1,16.2,30.37,NW,320,1.0,1.0,63,0.00,,CLR,0.02,VWS V14.00,2013-02-07 03:08:00,
2013-02-06 22:13:00,27.1,16.2,30.37,North,11,0.0,4.0,63,0.00,,CLR,0.02,VWS V14.00,2013-02-07 03:13:00,
2013-02-06 22:18:00,27.1,16.2,30.37,NW,314,1.0,4.0,63,0.00,,CLR,0.02,VWS V14.00,2013-02-07 03:18:00,
2013-02-06 22:23:00,27.4,15.7,30.38,NNW,333,0.0,4.0,61,0.00,,CLR,0.02,VWS V14.00,2013-02-07 03:23:00,
2013-02-06 22:28:00,27.5,15.4,30.38,NNE,16,0.0,5.0,60,0.00,,CLR,0.02,VWS V14.00,2013-02-07 03:28:00,
2013-02-06 22:30:00,27.5,15.4,30.38,NNE,15,0.0,5.0,60,0.00,,CLR,0.02,VWS V14.00,2013-02-07 03:30:00,
2013-02-06 22:33:00,27.6,15.6,30.38,NNW,347,0.0,1.0,60,0.00,,CLR,0.02,VWS V14.00,2013-02-07 03:33:00,
2013-02-06 22:38:00,27.5,15.1,30.38,NNE,18,1.0,2.0,59,0.00,,CLR,0.02,VWS V14.00,2013-02-07 03:38:00,
2013-02-06 22:43:00,27.6,15.2,30.39,NNE,19,0.0,2.0,59,0.00,,CLR,0.02,VWS V14.00,2013-02-07 03:43:00,
2013-02-06 22:48:00,27.5,14.7,30.39,NNE,13,3.0,4.0,58,0.00,,CLR,0.02,VWS V14.00,2013-02-07 03:48:00,
2013-02-06 22:53:00,27.7,14.9,30.39,NNE,17,1.0,4.0,58,0.00,,CLR,0.02,VWS V14.00,2013-02-07 03:53:00,
2013-02-06 22:58:00,27.4,15.0,30.39,North,11,3.0,4.0,59,0.00,,CLR,0.02,VWS V14.00,2013-02-07 03:58:00,
2013-02-06 23:00:00,27.4,14.6,30.39,NE,50,3.0,4.0,58,0.00,,CLR,0.02,VWS V14.00,2013-02-07 04:00:00,
2013-02-06 23:03:00,27.4,15.0,30.39,North,8,0.0,2.0,59,0.00,,CLR,0.02,VWS V14.00,2013-02-07 04:03:00,
2013-02-06 23:08:00,27.4,14.6,30.38,NNW,343,1.0,3.0,58,0.00,,CLR,0.02,VWS V14.00,2013-02-07 04:08:00,
2013-02-06 23:14:00,27.4,15.0,30.39,North,8,1.0,3.0,59,0.00,,CLR,0.02,VWS V14.00,2013-02-07 04:14:00,
2013-02-06 23:19:00,27.3,14.5,30.39,NNW,330,0.0,4.0,58,0.00,,CLR,0.02,VWS V14.00,2013-02-07 04:19:00,
2013-02-06 23:24:00,27.3,14.5,30.39,NW,319,0.0,4.0,58,0.00,,CLR,0.02,VWS V14.00,2013-02-07 04:24:00,
2013-02-06 23:29:00,27.1,14.7,30.39,NNW,342,1.0,4.0,59,0.00,,CLR,0.02,VWS V14.00,2013-02-07 04:29:00,
2013-02-06 23:30:00,27.1,14.7,30.39,North,352,0.0,4.0,59,0.00,,CLR,0.02,VWS V14.00,2013-02-07 04:30:00,
2013-02-06 23:34:00,26.9,14.1,30.39,NNW,342,0.0,1.0,58,0.00,,CLR,0.02,VWS V14.00,2013-02-07 04:34:00,
2013-02-06 23:39:00,26.9,14.1,30.39,NNW,335,0.0,2.0,58,0.00,,CLR,0.02,VWS V14.00,2013-02-07 04:39:00,
2013-02-06 23:44:00,26.7,14.3,30.39,North,360,1.0,2.0,59,0.00,,CLR,0.02,VWS V14.00,2013-02-07 04:44:00,
2013-02-06 23:49:00,26.3,13.9,30.39,NNE,16,0.0,2.0,59,0.00,,CLR,0.02,VWS V14.00,2013-02-07 04:49:00,
2013-02-06 23:54:00,26.1,13.8,30.39,NNE,15,0.0,2.0,59,0.00,,CLR,0.02,VWS V14.00,2013-02-07 04:54:00,